DW8300 Weather Reports


time (UTC)temp
C
wind
direction
speed
KPH
gust
KPH
rain 1hr
cm
rain 24hr
cm
rain mn
cm
humidity
%
barometer
mb
20260506232408 17 272 0.0 1.6 0.00 0.46 0.46 86 1008.5
20260506231849 17 267 0.0 4.8 0.00 0.46 0.46 85 1008.4
20260506230730 17 286 0.0 4.8 0.00 0.46 0.46 85 1008.3
20260506230234 18 279 0.0 4.8 0.00 0.46 0.46 86 1008.2
20260506224430 18 292 0.0 0.0 0.00 0.46 0.46 86 1008.2
20260506223926 18 289 0.0 0.0 0.00 0.46 0.46 87 1008.3
20260506223426 18 289 0.0 0.0 0.00 0.46 0.46 87 1008.2
20260506222914 18 288 0.0 1.6 0.00 0.46 0.46 86 1008.2
20260506222403 18 284 0.0 1.6 0.00 0.46 0.46 86 1008.2
20260506221901 18 279 0.0 0.0 0.00 0.46 0.46 86 1008.1
20260506221356 18 271 0.0 1.6 0.00 0.46 0.46 85 1008.2
20260506220905 18 238 0.0 0.0 0.00 0.46 0.46 85 1008.2
20260506220345 18 237 0.0 0.0 0.00 0.46 0.46 86 1008.0
20260506215845 18 234 0.0 0.0 0.00 0.46 0.46 86 1007.8
20260506215346 18 234 0.0 1.6 0.00 0.46 0.46 86 1007.8
20260506214828 18 234 0.0 0.0 0.00 0.46 0.46 86 1007.9
20260506214311 18 232 0.0 0.0 0.00 0.46 0.46 86 1008.0
20260506213805 18 233 0.0 0.0 0.00 0.46 0.46 86 1007.9
20260506213256 18 233 0.0 0.0 0.00 0.46 0.46 87 1007.9
20260506211446 18 232 0.0 0.0 0.00 0.46 0.46 88 1007.7
20260506210335 18 232 0.0 0.0 0.00 0.46 0.46 88 1007.5
20260506205844 18 232 0.0 0.0 0.00 0.46 0.46 88 1007.3
20260506205333 18 233 0.0 0.0 0.00 0.46 0.46 88 1007.3
20260506204829 18 233 0.0 0.0 0.00 0.46 0.46 89 1007.4
20260506203700 17 233 0.0 0.0 0.00 0.46 0.46 89 1007.2
20260506203150 17 233 0.0 0.0 0.00 0.46 0.46 89 1007.3
20260506202648 17 233 0.0 0.0 0.00 0.46 0.46 88 1007.3
20260506202145 17 232 0.0 0.0 0.00 0.46 0.46 88 1007.3
20260506201629 17 232 0.0 0.0 0.00 0.46 0.46 88 1007.3
20260506201125 17 232 0.0 0.0 0.00 0.46 0.46 88 1007.3
20260506200623 18 232 0.0 0.0 0.00 0.46 0.46 88 1007.4
20260506200106 17 232 0.0 0.0 0.00 0.46 0.46 87 1007.3
20260506195604 18 232 0.0 0.0 0.00 0.46 0.46 87 1007.4
20260506195059 18 233 0.0 0.0 0.00 0.46 0.46 87 1007.4
20260506194607 18 233 0.0 0.0 0.00 0.46 0.46 87 1007.4
20260506194107 18 233 0.0 0.0 0.00 0.46 0.46 87 1007.3
20260506193549 18 233 0.0 0.0 0.00 0.46 0.46 86 1007.4
20260506192424 18 232 0.0 0.0 0.00 0.46 0.46 86 1007.6
20260506191913 18 233 0.0 0.0 0.00 0.46 0.46 86 1007.6
20260506190752 18 235 0.0 0.0 0.00 0.46 0.46 85 1007.5
20260506190239 18 235 0.0 1.6 0.00 0.46 0.46 85 1007.6
20260506185733 18 225 0.0 0.0 0.00 0.46 0.46 85 1007.5
20260506185231 18 234 0.0 0.0 0.00 0.46 0.46 85 1007.6
20260506184719 18 233 0.0 1.6 0.00 0.46 0.46 85 1007.6
20260506184204 18 236 0.0 6.4 0.00 0.46 0.46 84 1007.6
20260506183704 18 249 0.0 6.4 0.00 0.46 0.46 85 1007.6
20260506182536 17 245 0.0 0.0 0.00 0.46 0.46 86 1007.6
20260506180733 17 238 0.0 1.6 0.00 0.46 0.46 87 1007.7
20260506180219 17 157 0.0 6.4 0.00 0.46 0.46 87 1007.8
20260506175057 17 219 0.0 12.9 0.00 0.46 0.46 85 1007.8
20260506174552 17 223 0.0 12.9 0.00 0.46 0.46 84 1007.9
20260506174058 17 178 0.0 0.0 0.00 0.46 0.46 84 1007.8
20260506172942 17 207 0.0 6.4 0.00 0.46 0.46 85 1007.7
20260506172423 17 244 0.0 6.4 0.00 0.46 0.46 84 1007.7
20260506171914 17 225 0.0 6.4 0.00 0.46 0.46 85 1007.7
20260506171359 17 205 0.0 6.4 0.00 0.46 0.46 85 1007.7
20260506170845 17 138 0.0 1.6 0.00 0.46 0.46 86 1007.7
20260506170354 17 181 0.0 16.1 0.00 0.46 0.46 87 1007.7
20260506165905 17 229 0.0 16.1 0.00 0.46 0.46 88 1007.8
20260506165401 17 228 0.0 16.1 0.00 0.46 0.46 88 1007.8
20260506164904 17 217 0.0 14.5 0.00 0.46 0.46 88 1007.8
20260506164345 17 232 0.0 9.7 0.00 0.46 0.46 89 1007.8
20260506163829 17 221 0.0 6.4 0.00 0.46 0.46 89 1007.8
20260506163323 16 173 0.0 0.0 0.00 0.46 0.46 90 1007.9
20260506162818 16 193 0.0 0.0 0.00 0.46 0.46 91 1007.9
20260506162326 16 142 0.0 1.6 0.00 0.46 0.46 91 1008.0
20260506161820 16 244 0.0 0.0 0.00 0.46 0.46 91 1008.0
20260506161304 16 194 0.0 6.4 0.00 0.46 0.46 91 1007.9
20260506160111 15 207 0.0 1.6 0.00 0.46 0.46 92 1007.8
20260506154332 15 144 0.0 1.6 0.00 0.46 0.46 92 1008.2
20260506153826 15 221 0.0 0.0 0.00 0.46 0.46 92 1008.1
20260506153317 15 200 0.0 1.6 0.00 0.46 0.46 92 1007.9
20260506152143 15 210 0.0 1.6 0.00 0.46 0.46 92 1007.9
20260506151629 15 246 0.0 0.0 0.00 0.46 0.46 93 1007.9
20260506151113 15 248 0.0 1.6 0.00 0.46 0.46 93 1007.7
20260506145956 15 164 0.0 0.0 0.00 0.41 0.43 93 1008.2
20260506145442 15 171 0.0 0.0 0.00 0.41 0.43 93 1008.1
20260506144935 15 168 0.0 0.0 0.00 0.41 0.43 93 1007.9
20260506144444 15 219 0.0 0.0 0.00 0.41 0.43 93 1008.0
20260506143930 15 244 0.0 0.0 0.00 0.41 0.43 93 1008.1
20260506142210 15 227 0.0 1.6 0.00 0.41 0.41 93 1008.5
20260506141658 15 181 0.0 1.6 0.00 0.41 0.41 92 1008.4
20260506141140 15 232 0.0 0.0 0.00 0.41 0.41 92 1008.6
20260506140636 15 240 0.0 11.3 0.00 0.41 0.41 92 1008.6
20260506140123 15 185 0.0 1.6 0.00 0.41 0.41 92 1008.4
20260506135603 15 188 0.0 0.0 0.00 0.41 0.41 92 1008.4
20260506135056 15 185 0.0 0.0 0.00 0.41 0.41 92 1008.3
20260506133929 15 193 0.0 0.0 0.13 0.41 0.41 92 1008.3
20260506133411 15 199 0.0 0.0 0.13 0.41 0.41 92 1008.3
20260506132905 15 154 0.0 0.0 0.13 0.36 0.38 92 1008.3
20260506131751 15 242 0.0 0.0 0.00 0.33 0.38 92 1008.6
20260506131239 15 164 0.0 1.6 0.00 0.33 0.33 92 1008.6
20260506130738 15 205 0.0 1.6 0.00 0.33 0.33 92 1008.7
20260506130244 15 170 0.0 0.0 0.13 0.33 0.33 92 1008.7
20260506125725 15 147 0.0 1.6 0.20 0.33 0.33 91 1008.6
20260506125222 15 129 0.0 1.6 0.20 0.33 0.33 91 1008.6
20260506124729 15 127 0.0 0.0 0.10 0.33 0.33 91 1008.6
20260506123615 15 214 0.0 0.0 0.15 0.30 0.30 91 1008.7
20260506123103 15 212 0.0 0.0 0.15 0.30 0.30 91 1008.5
20260506122545 15 212 0.0 0.0 0.20 0.25 0.25 90 1008.5
20260506122055 15 213 0.0 0.0 0.20 0.25 0.25 90 1008.5
20260506121538 15 211 0.0 0.0 0.25 0.23 0.25 90 1008.6
20260506121041 15 211 0.0 0.0 0.25 0.23 0.25 89 1008.9
20260506120540 15 207 0.0 0.0 0.25 0.20 0.23 89 1008.9
20260506115431 15 237 0.0 0.0 0.23 0.15 0.15 87 1009.0
20260506114941 15 200 0.0 0.0 0.25 0.15 0.15 87 1009.1
20260506114426 15 205 0.0 1.6 0.20 0.10 0.13 86 1009.1
20260506113928 15 155 0.0 0.0 0.20 0.10 0.10 85 1009.0
20260506113436 16 217 0.0 0.0 0.20 0.10 0.10 84 1009.0
20260506112927 16 217 0.0 0.0 0.30 0.08 0.08 83 1009.2
20260506112429 16 214 0.0 0.0 0.15 0.05 0.05 82 1009.1
20260506111911 16 221 0.0 1.6 0.00 0.03 0.03 80 1009.1
20260506111401 16 219 0.0 0.0 0.00 0.03 0.03 80 1008.9
20260506110900 16 250 0.0 0.0 0.00 0.00 0.00 79 1008.6
20260506110410 16 250 0.0 0.0 0.00 0.00 0.00 79 1008.6
20260506105905 16 264 0.0 0.0 0.00 0.00 0.00 78 1008.5
20260506104729 16 249 0.0 0.0 0.00 0.00 0.00 77 1008.4
20260506104228 16 250 0.0 0.0 0.00 0.00 0.00 77 1008.4
20260506103720 16 193 0.0 0.0 0.00 0.00 0.00 76 1008.3
20260506103219 16 240 0.0 0.0 0.00 0.00 0.00 76 1008.3
20260506102704 17 197 0.0 0.0 0.00 0.00 0.00 75 1008.2
20260506102202 17 178 0.0 0.0 0.00 0.00 0.00 75 1008.1
20260506101648 17 213 0.0 1.6 0.00 0.00 0.00 74 1008.0
20260506101146 17 219 0.0 1.6 0.00 0.00 0.00 73 1008.1
20260506100630 17 222 0.0 1.6 0.00 0.00 0.00 73 1008.0
20260506100121 17 225 0.0 1.6 0.00 0.00 0.00 72 1008.0
20260506095624 17 194 0.0 1.6 0.00 0.00 0.00 70 1007.9
20260506094506 18 230 0.0 0.0 0.00 0.00 0.00 68 1007.9
20260506093953 18 173 0.0 3.2 0.00 0.00 0.00 67 1007.9
20260506093449 18 217 0.0 1.6 0.00 0.00 0.00 66 1007.9
20260506092328 18 238 0.0 4.8 0.00 0.00 0.00 65 1007.9
20260506091834 18 232 0.0 4.8 0.00 0.00 0.00 65 1008.0
20260506091331 18 174 0.0 0.0 0.00 0.00 0.00 65 1007.9
20260506090218 18 265 0.0 6.4 0.00 0.00 0.00 64 1007.9
20260506085042 18 207 0.0 0.0 0.00 0.00 0.00 64 1008.0
20260506084548 18 194 0.0 1.6 0.00 0.00 0.00 64 1008.1
20260506083413 18 237 0.0 1.6 0.00 0.00 0.00 63 1008.1
20260506082904 18 225 0.0 16.1 0.00 0.00 0.00 63 1008.2
20260506082411 18 214 0.0 16.1 0.00 0.00 0.00 63 1008.3
20260506081903 18 185 0.0 14.5 0.00 0.00 0.00 63 1008.2
20260506081405 18 161 0.0 1.6 0.00 0.00 0.00 63 1008.2
20260506080913 18 233 0.0 4.8 0.00 0.00 0.00 63 1008.2
20260506080357 18 230 0.0 1.6 0.00 0.00 0.00 62 1008.2
20260506073301 18 221 0.0 9.7 0.00 0.00 0.00 61 1008.2
20260506072746 18 194 0.0 4.8 0.00 0.00 0.00 60 1008.1
20260506072249 18 204 0.0 1.6 0.00 0.00 0.00 60 1008.3
20260506071730 18 225 0.0 3.2 0.00 0.00 0.00 60 1008.2
20260506070620 19 238 0.0 1.6 0.00 0.00 0.00 59 1008.3
20260506070114 19 211 0.0 0.0 0.00 0.00 0.00 59 1008.2
20260506062045 19 220 0.0 0.0 0.00 0.00 0.00 58 1008.8
20260506061553 19 218 0.0 1.6 0.00 0.00 0.00 57 1008.9
20260506061047 19 236 0.0 1.6 0.00 0.00 0.00 57 1008.9
20260506060535 19 191 0.0 0.0 0.00 0.00 0.00 57 1009.0
20260506051006 19 200 0.0 0.0 0.00 0.00 0.00 54 1009.4
20260506050511 19 186 0.0 0.0 0.00 0.00 0.00 53 1009.5
20260506044812 19 186 0.0 0.0 0.00 0.00 0.00 52 1009.6
20260506044259 19 208 0.0 3.2 0.00 0.00 0.00 51 1009.6
20260506043139 19 188 0.0 0.0 0.00 0.00 0.00 50 1009.6
20260506042042 19 174 0.0 0.0 0.00 0.00 0.00 50 1009.5
20260506041524 19 174 0.0 0.0 0.00 0.00 0.00 50 1009.5
20260506041005 19 174 0.0 0.0 0.00 0.00 0.00 50 1009.6
20260506040454 19 175 0.0 0.0 0.00 0.00 0.00 49 1009.5
20260506035939 20 175 0.0 0.0 0.00 0.00 0.00 49 1009.5
20260506035427 20 175 0.0 0.0 0.00 0.00 0.00 48 1009.5
20260506034909 20 175 0.0 0.0 0.00 0.00 0.00 48 1009.5
20260506034417 20 175 0.0 0.0 0.00 0.00 0.00 47 1009.4
20260506033859 20 175 0.0 0.0 0.00 0.00 0.00 47 1009.5
20260506033345 20 175 0.0 0.0 0.00 0.00 0.00 46 1009.5
20260506032828 20 172 0.0 0.0 0.00 0.00 0.00 47 1009.4
20260506032316 20 170 0.0 0.0 0.00 0.00 0.00 47 1009.4
20260506031822 20 224 0.0 0.0 0.00 0.00 0.00 47 1009.3
20260506031317 20 128 0.0 0.0 0.00 0.00 0.00 47 1009.3
20260506030152 20 121 0.0 0.0 0.00 0.00 0.00 46 1009.3
20260506025030 20 248 0.0 0.0 0.00 0.00 0.00 45 1009.5
20260506024530 20 250 0.0 0.0 0.00 0.00 0.00 45 1009.4
20260506024032 20 250 0.0 0.0 0.00 0.00 0.00 44 1009.4
20260506023514 20 250 0.0 0.0 0.00 0.00 0.00 44 1009.4
20260506022959 20 250 0.0 1.6 0.00 0.00 0.00 43 1009.4
20260506022457 21 180 0.0 0.0 0.00 0.00 0.00 43 1009.4
20260506021946 21 178 0.0 0.0 0.00 0.00 0.00 43 1009.4
20260506021443 21 201 0.0 0.0 0.00 0.00 0.00 42 1009.4
20260506020315 21 239 0.0 0.0 0.00 0.00 0.00 41 1009.5
20260506015814 21 239 0.0 0.0 0.00 0.00 0.00 40 1009.5
20260506015311 21 240 0.0 0.0 0.00 0.00 0.00 40 1009.4
20260506014806 21 244 0.0 0.0 0.00 0.00 0.00 40 1009.3
20260506014301 21 243 0.0 0.0 0.00 0.00 0.00 39 1009.3
20260506013759 21 236 0.0 0.0 0.00 0.00 0.00 38 1009.2
20260506013251 21 207 0.0 0.0 0.00 0.00 0.00 38 1009.2
20260506012747 21 204 0.0 1.6 0.00 0.00 0.00 38 1009.1
20260506012253 22 202 0.0 1.6 0.00 0.00 0.00 37 1009.0
20260506011802 22 247 0.0 1.6 0.00 0.00 0.00 36 1009.0
20260506011243 22 248 0.0 1.6 0.00 0.00 0.00 37 1008.9
20260506010739 22 211 0.0 0.0 0.00 0.00 0.00 36 1008.9
20260506010248 22 212 0.0 0.0 0.00 0.00 0.00 36 1008.8
20260506005751 22 213 0.0 1.6 0.00 0.00 0.00 36 1008.8
20260506005251 22 251 0.0 0.0 0.00 0.00 0.00 35 1008.8
20260506004749 22 219 0.0 8.0 0.00 0.00 0.00 35 1008.8
20260506004240 22 175 0.0 8.0 0.00 0.00 0.00 35 1008.7
20260506003731 22 214 0.0 0.0 0.00 0.00 0.00 35 1008.6
20260506003235 22 226 0.0 1.6 0.00 0.00 0.00 35 1008.5
20260506002049 23 222 0.0 12.9 0.00 0.00 0.00 35 1008.4
20260506001531 23 228 0.0 4.8 0.00 0.00 0.00 36 1008.4
20260506001012 23 79 0.0 4.8 0.00 0.00 0.00 35 1008.2
20260506000509 23 207 0.0 4.8 0.00 0.00 0.00 34 1008.3
20260505235957 23 218 0.0 1.6 0.00 0.00 0.00 35 1008.2
20260505234849 23 225 0.0 6.4 0.00 0.00 0.00 35 1008.2
20260505234345 24 216 0.0 6.4 0.00 0.00 0.00 34 1008.2
20260505233850 24 178 0.0 6.4 0.00 0.00 0.00 35 1008.1
20260505233332 24 196 0.0 1.6 0.00 0.00 0.00 35 1008.2